一网星座-0337星 (ONEWEB-0337 )

导读 | 豆包AI

ONEWEB-0337是英国OneWeb星座旗下低轨小卫星,于2021年9月14日发射入轨。OneWeb星座旨在依托近地轨道卫星群,为全球提供高速低延迟宽带通信服务,英国政府入股后,还计划在该系列卫星中集成导航定位能力,试图打造自主卫星导航体系,该卫星是OneWeb全球通信组网建设的重要组成部分,助力其推进全球覆盖的卫星互联网部署。

基本信息
目录编号:
49203
目录名称:
ONEWEB-0337
国际标识:
2021-083T
轨道中心:
EARTH
卫星名称:
一网星座-0337星
卫星全名:
一网星座-0337星 (ONEWEB-0337 )
卫星状态:
在轨 (已飞行1689 天)
发射日期:
2021-09-14 UTC
国别 :
英国 (GB)
星等 :
--
轨道信息
数据来源 国际轨道数据 AOE轨道数据
星历时间 2026-04-30T09:09:31+0800
8小时前
查看轨道信息
2026-04-30T08:00:00+0800
9小时前
查看轨道信息
半长轴 7587.906km 7587.919km
偏心率 0.0001539 0.0000514
轨道倾角 87.896° 87.894°
近地点辐角 88.515° 78.380°
升交点赤经 329.827° 329.839°
平近点角 271.616° 53.602°
近地点 1208.601km 1209.391km
远地点 1210.937km 1210.173km
周期 109.633分钟 109.634分钟
每日圈数 13.134693 13.134658
详细信息
平衡模式:
三轴稳定
覆盖范围:
全球
运营商:
一网卫星公司
运营商所在国:
英国
制造商(研发单位):
一网卫星公司
制造商所在国:
英国
使用方式:
暂无
卫星简介
OneWeb卫星网络由648颗重约125公斤的微型卫星组成,运行在1200公里的轨道上。 每颗卫星都能够提供至少每秒8千兆位的吞吐量,以使用其高吞吐量的Ku频段有效载荷为家庭和移动平台提供互联网接入。该卫星仍在工作。
2D轨道图
3D轨道图
轨道高度分析图
轨道倾角分析图
轨道综合分析图
查看轨道综合分析图